Weather History for KMZG - February, 2013

Change the Weather History Date:

Thursday, February 28, 2013

  Actual Average Record
Temperature  
Mean Temperature 56 °F -  
Max Temperature 60 °F - - ()
Min Temperature 51 °F - - ()
Degree Days  
Heating Degree Days 10    
Growing Degree Days 6 (Base 50)    
Moisture  
Dew Point 35 °F    
Average Humidity 46    
Maximum Humidity 58    
Minimum Humidity 34    
Precipitation  
Precipitation 0.00 in - - ()
Sea Level Pressure  
Sea Level Pressure 30.21 in    
Wind  
Wind Speed 24 mph ()    
Max Wind Speed 34 mph    
Max Gust Speed 39 mph    
Visibility 10.0 miles    
Events      
Averages and records for this station are not official NWS values.
T = Trace of Precipitation, MM = Missing Value Source: Averaged Metar Reports

Daily Weather History Graph

Daily Weather History Graph

Search for Another Location

Airport or City:

Trip Planner

Search our weather history database for the weather conditions in past years. The results will help you decide how hot, cold, wet, or windy it might be!

Date:

Astronomy

Feb. 28, 2013 Rise Set
Actual Time 6:49 AM CST 6:24 PM CST
Civil Twilight 6:26 AM CST 6:48 PM CST
Nautical Twilight 5:59 AM CST 7:15 PM CST
Astronomical Twilight 5:32 AM CST 7:42 PM CST
Moon 9:29 PM CST (2/28) 8:20 AM CST (2/28)
Length of Visible Light 12h 22m
Length of Day
11h 34m
Waning Gibbous, 90% of the Moon is Illuminated
Feb 28
Waning Gibbous
Mar 4
Last Quarter
Mar 11
New
Mar 19
First Quarter
Mar 27
Full

Hourly Weather History & Observations

Time (CST) Temp. Dew Point Humidity Pressure Visibility Wind Dir Wind Speed Gust Speed Precip Events Conditions
12:35 AM 60.8 °F 33.8 °F 36% 30.17 in 10.0 mi North 25.3 mph 31.1 mph N/A   Unknown
12:55 AM 59.0 °F 35.6 °F 42% 30.17 in 10.0 mi North 26.5 mph - N/A   Unknown
1:15 AM 59.0 °F 35.6 °F 42% 30.15 in 10.0 mi North 25.3 mph 33.4 mph N/A   Unknown
1:35 AM 59.0 °F 35.6 °F 42% 30.16 in 10.0 mi North 27.6 mph - N/A   Unknown
1:55 AM 59.0 °F 35.6 °F 42% 30.16 in 10.0 mi North 27.6 mph 33.4 mph N/A   Unknown
2:15 AM 59.0 °F 33.8 °F 39% 30.16 in 10.0 mi North 25.3 mph 34.5 mph N/A   Unknown
2:35 AM 59.0 °F 32.0 °F 36% 30.16 in 10.0 mi North 25.3 mph 33.4 mph N/A   Unknown
2:55 AM 59.0 °F 32.0 °F 36% 30.16 in 10.0 mi North 27.6 mph 34.5 mph N/A   Unknown
3:15 AM 59.0 °F 37.4 °F 45% 30.16 in 10.0 mi North 26.5 mph 34.5 mph N/A   Unknown
3:35 AM 57.2 °F 33.8 °F 41% 30.16 in 10.0 mi North 34.5 mph - N/A   Unknown
3:55 AM 57.2 °F 33.8 °F 41% 30.16 in 10.0 mi North 29.9 mph 36.8 mph N/A   Unknown
4:15 AM 57.2 °F 33.8 °F 41% 30.18 in 10.0 mi North 32.2 mph - N/A   Unknown
4:35 AM 55.4 °F 32.0 °F 41% 30.18 in 10.0 mi North 31.1 mph - N/A   Unknown
4:55 AM 55.4 °F 35.6 °F 47% 30.18 in 10.0 mi North 32.2 mph - N/A   Unknown
5:15 AM 55.4 °F 35.6 °F 47% 30.19 in 10.0 mi North 29.9 mph 39.1 mph N/A   Unknown
5:55 AM 53.6 °F 35.6 °F 51% 30.20 in 10.0 mi North 31.1 mph 39.1 mph N/A   Unknown
6:15 AM 53.6 °F 37.4 °F 54% 30.21 in 10.0 mi North 33.4 mph 39.1 mph N/A   Unknown
6:35 AM 53.6 °F 35.6 °F 51% 30.21 in 10.0 mi North 29.9 mph 39.1 mph N/A   Unknown
6:55 AM 53.6 °F 37.4 °F 54% 30.21 in 10.0 mi North 27.6 mph 38.0 mph N/A   Unknown
7:15 AM 53.6 °F 37.4 °F 54% 30.22 in 10.0 mi North 28.8 mph 38.0 mph N/A   Clear
7:35 AM 53.6 °F 37.4 °F 54% 30.23 in 10.0 mi North 33.4 mph - N/A   Clear
7:55 AM 53.6 °F 37.4 °F 54% 30.24 in 10.0 mi North 32.2 mph 39.1 mph N/A   Clear
8:15 AM 53.6 °F 35.6 °F 51% 30.25 in 10.0 mi North 33.4 mph - N/A   Clear
8:35 AM 53.6 °F 37.4 °F 54% 30.24 in 10.0 mi North 26.5 mph 34.5 mph N/A   Clear
8:55 AM 51.8 °F 35.6 °F 54% 30.25 in 10.0 mi North 29.9 mph - N/A   Clear
9:15 AM 53.6 °F 35.6 °F 51% 30.26 in 10.0 mi North 26.5 mph 32.2 mph N/A   Clear
9:35 AM 53.6 °F 37.4 °F 54% 30.26 in 10.0 mi North 26.5 mph 33.4 mph N/A   Clear
9:55 AM 53.6 °F 37.4 °F 54% 30.26 in 10.0 mi North 26.5 mph - N/A   Clear
10:15 AM 53.6 °F 37.4 °F 54% 30.26 in 10.0 mi North 27.6 mph 33.4 mph N/A   Clear
10:35 AM 53.6 °F 37.4 °F 54% 30.26 in - North 26.5 mph - N/A   Clear
10:55 AM 53.6 °F 37.4 °F 54% 30.27 in 10.0 mi North 24.2 mph - N/A   Clear
11:15 AM 51.8 °F 35.6 °F 54% 30.25 in 10.0 mi North 24.2 mph 31.1 mph N/A   Clear
11:35 AM 51.8 °F 37.4 °F 58% 30.25 in 10.0 mi North 21.9 mph 27.6 mph N/A   Clear
11:55 AM 51.8 °F 37.4 °F 58% 30.24 in 10.0 mi North 24.2 mph 32.2 mph N/A   Clear
12:35 PM 53.6 °F 35.6 °F 51% 30.23 in 10.0 mi North 21.9 mph - N/A   Clear
12:55 PM 53.6 °F 35.6 °F 51% 30.22 in 10.0 mi North 21.9 mph 28.8 mph N/A   Clear
1:15 PM 53.6 °F 35.6 °F 51% 30.21 in 10.0 mi North 21.9 mph 27.6 mph N/A   Clear
1:35 PM 53.6 °F 33.8 °F 47% 30.21 in 10.0 mi North 20.7 mph 26.5 mph N/A   Clear
1:55 PM 53.6 °F 35.6 °F 51% 30.20 in 10.0 mi North 19.6 mph 26.5 mph N/A   Clear
2:15 PM 53.6 °F 35.6 °F 51% 30.19 in 10.0 mi NNW 23.0 mph - N/A   Clear
2:35 PM 53.6 °F 33.8 °F 47% 30.18 in 10.0 mi NNW 19.6 mph 26.5 mph N/A   Clear
2:55 PM 53.6 °F 35.6 °F 51% 30.18 in 10.0 mi NNW 21.9 mph 27.6 mph N/A   Clear
3:15 PM 53.6 °F 35.6 °F 51% 30.18 in 10.0 mi NNW 18.4 mph - N/A   Clear
3:35 PM 53.6 °F 33.8 °F 47% 30.18 in 10.0 mi NNW 20.7 mph 27.6 mph N/A   Clear
3:55 PM 53.6 °F 33.8 °F 47% 30.18 in 10.0 mi NNW 18.4 mph 25.3 mph N/A   Clear
4:15 PM 53.6 °F 33.8 °F 47% 30.17 in 10.0 mi North 18.4 mph 24.2 mph N/A   Clear
4:35 PM 53.6 °F 33.8 °F 47% 30.18 in 10.0 mi NNW 20.7 mph - N/A   Clear
4:55 PM 53.6 °F 33.8 °F 47% 30.19 in 10.0 mi NNW 19.6 mph - N/A   Clear
5:15 PM 53.6 °F 33.8 °F 47% 30.18 in 10.0 mi NNW 21.9 mph - N/A   Clear
5:35 PM 55.4 °F 33.8 °F 44% 30.19 in 10.0 mi NNW 21.9 mph - N/A   Clear
6:15 PM 55.4 °F 33.8 °F 44% 30.20 in 10.0 mi North 19.6 mph - N/A   Clear
6:35 PM 57.2 °F 33.8 °F 41% 30.20 in 10.0 mi North 18.4 mph - N/A   Clear
6:55 PM 57.2 °F 33.8 °F 41% 30.20 in 10.0 mi North 17.3 mph 26.5 mph N/A   Unknown
7:15 PM 57.2 °F 33.8 °F 41% 30.20 in 10.0 mi NNW 18.4 mph - N/A   Unknown
7:35 PM 57.2 °F 33.8 °F 41% 30.20 in 10.0 mi North 18.4 mph 24.2 mph N/A   Unknown
7:55 PM 57.2 °F 33.8 °F 41% 30.21 in 10.0 mi North 16.1 mph - N/A   Unknown
8:15 PM 57.2 °F 33.8 °F 41% 30.22 in 10.0 mi North 18.4 mph - N/A   Unknown
8:35 PM 57.2 °F 33.8 °F 41% 30.22 in 10.0 mi North 18.4 mph - N/A   Unknown
8:55 PM 59.0 °F 32.0 °F 36% 30.22 in 10.0 mi NNW 26.5 mph - N/A   Unknown
9:15 PM 59.0 °F 32.0 °F 36% 30.23 in 10.0 mi North 20.7 mph 27.6 mph N/A   Unknown
9:35 PM 59.0 °F 32.0 °F 36% 30.23 in 10.0 mi North 23.0 mph - N/A   Unknown
9:55 PM 59.0 °F 33.8 °F 39% 30.23 in 10.0 mi NNW 23.0 mph - N/A   Unknown
10:15 PM 59.0 °F 32.0 °F 36% 30.23 in 10.0 mi North 23.0 mph 29.9 mph N/A   Unknown
10:35 PM 59.0 °F 33.8 °F 39% 30.23 in 10.0 mi North 21.9 mph - N/A   Unknown
10:55 PM 59.0 °F 32.0 °F 36% 30.22 in 10.0 mi North 20.7 mph 28.8 mph N/A   Unknown
11:15 PM 59.0 °F 32.0 °F 36% 30.23 in 10.0 mi NNW 21.9 mph 28.8 mph N/A   Unknown
11:35 PM 59.0 °F 30.2 °F 34% 30.23 in 10.0 mi North 23.0 mph 28.8 mph N/A   Unknown
11:55 PM 59.0 °F 32.0 °F 36% 30.24 in 10.0 mi North 19.6 mph - N/A   Unknown